Location: Complexul Astronomic Baia Mare
(47.6577°N, 23.5639°E)
Time: 06:46:42
(UTC+03:00)

ISS - Pass Details

Date: 09 May 2017
Orbit: 402 x 408 km, 51.6° (Epoch: 29 May)

Event Time Altitude Azimuth Distance (km) Brightness Sun altitude
Exits shadow 04:43:36 15° 202° (SSW) 1,199 -2.0 -10.9°
Maximum altitude 04:45:49 32° 144° (SE) 724 -2.6 -10.6°
Drops below altitude 10° 04:48:47 10° 79° (E) 1,462 0.0 -10.3°
Sets 04:50:59 0° 69° (ENE) 2,323 1.6 -10.0°
